Location: Bruderhein
(53.8035°N, 112.9265°W)
Time: 12:37:19
(UTC+00:00)

deb Delta 139 - Pass Details

Date: 08 December 2023
Orbit: 731 x 794 km, 98.6° (Epoch: 01 March)

Event Time Altitude Azimuth Distance (km) Brightness Sun altitude
Rises 00:07:45 0° 129° (SE) 3,250 ? -7.7°
Reaches altitude 10° 00:10:19 10° 118° (ESE) 2,316 ? -8.1°
Maximum altitude 00:14:41 30° 59° (ENE) 1,356 ? -8.6°
Drops below altitude 10° 00:19:01 10° 0° (N) 2,293 ? -9.2°
Sets 00:21:32 0° 350° (N) 3,212 ? -9.6°
